Regional Weather Roundup
Issued by NWS

Home | Current Version | Previous Version | Graphics & Text | Print | Product List | Glossary Off
Versions: 1 2 3 4 5 6 7 8 9 10 11 12 13 14 15 16 17 18 19 20 21 22 23 24 25 26 27 28 29 30 31 32 33 34 35 36 37 38 39 40 41 42 43 44 45 46 47 48 49 50

000
ASUS43 KDMX 280907
RWRIA

WEATHER ROUNDUP FOR IOWA
NATIONAL WEATHER SERVICE DES MOINES IA
400 AM CDT SAT MAR 28 2015

NOTE: "FAIR" INDICATES FEW OR NO CLOUDS BELOW 12,000 FEET WITH NO
SIGNIFICANT WEATHER AND/OR OBSTRUCTIONS TO VISIBILITY.

* - THESE STATIONS ARE NOT NWS STATIONS...THUS NOT UNDER NWS
QUALITY CONTROL.  THEY ALSO DO NOT REPORT WEATHER SUCH
AS PRECIPITATION OR FOG.

IAZ001>003-012>014-020>022-031>034-043>046-281000-
   NORTHWEST IOWA

CITY           SKY/WX    TMP DP  RH WIND       PRES   REMARKS
CARROLL *      CLOUDY    30  28  93 E8        30.13S WCI  23
CHEROKEE *     CLOUDY    30  28  93 E5        30.12S WCI  25
DENISON *      CLOUDY    30  30 100 E5        30.10S WCI  25
LE MARS *      CLOUDY    32  27  80 SE9       30.10S WCI  24
ORANGE CITY *  CLOUDY    30  27  86 SE8       30.10R WCI  23
SHELDON *      CLOUDY    28  28 100 E9        30.10S WCI  20
SIOUX CITY     MOCLDY    32  25  75 SE14      30.09S WCI  22
SPENCER        CLOUDY    29  25  85 E6        30.13S WCI  23
STORM LAKE *   CLOUDY    28  27  93 SE7       30.12S WCI  21
$$

IAZ055>058-069>071-079>083-090>094-281000-
   SOUTHWEST IOWA

CITY           SKY/WX    TMP DP  RH WIND       PRES   REMARKS
ATLANTIC *     CLOUDY    32  28  86 CALM      30.12S
AUDUBON *      CLEAR     30  27  86 E3        30.13S
CLARINDA *     CLOUDY    34  28  80 E3        30.14S
COUNCIL BLFS * CLOUDY    32  30  93 SE10      30.10F WCI  24
CRESTON *      CLOUDY    32  23  69 E7        30.12S WCI  26
HARLAN  *      CLOUDY    32  32 100 SE3       30.15S
LAMONI         CLOUDY    34  18  52 E5        30.13R WCI  30
RED OAK *      CLOUDY    34  28  80 E7        30.12S WCI  28
SHENANDOAH *   CLOUDY    34  28  80 E8        30.12S WCI  27
$$

IAZ047>049-059>061-072>074-084-281000-
   CENTRAL IOWA

CITY           SKY/WX    TMP DP  RH WIND       PRES   REMARKS
AMES           CLOUDY    28  17  63 E6        30.16S WCI  22
ANKENY *       CLOUDY    30  18  59 NE3       30.17S
CHARITON *     CLOUDY    32  14  47 SE8       30.15S WCI  25
DES MOINES     CLOUDY    33  11  39 SE7       30.16S WCI  27
GRINNELL*      MOCLDY    23  16  74 E5        30.18S WCI  17
KNOXVILLE *    CLOUDY    30  12  47 SE6       30.15S WCI  24
MARSHALLTOWN   MOCLDY    22  16  78 E6        30.17R WCI  14
PELLA *        PTCLDY    27  18  69 E5        30.18S WCI  21
PERRY *        CLOUDY    32  27  80 S5        30.15S WCI  27
$$

IAZ004>006-015-016-023>025-035-036-281000-
   NORTH CENTRAL IOWA

CITY           SKY/WX    TMP DP  RH WIND       PRES   REMARKS
ALGONA *       CLOUDY    28  21  74 SE8       30.15S WCI  20
CLARION *      CLOUDY    27  19  74 SE10      30.16S WCI  17
ESTHERVILLE    CLOUDY    29  25  85 CALM      30.13F
FORT DODGE *   CLOUDY    28  19  69 E7        30.16S WCI  21
MASON CITY     CLOUDY    25  16  68 SE7       30.18S WCI  17
FOREST CITY *  PTCLDY    23  18  80 SE5       30.16S WCI  17
IOWA FALLS *     N/A     25  19  80 E5        30.17S WCI  19
$$

IAZ007>011-017>019-026>030-037>042-050>054-066-281000-
   NORTHEAST IOWA

CITY           SKY/WX    TMP DP  RH WIND       PRES   REMARKS
CEDAR RAPIDS   PTCLDY    21  14  74 E7        30.19R WCI  12
CHARLES CITY * CLOUDY    23  18  80 CALM      30.19R
CLINTON *      CLEAR     19  16  86 E7        30.25R WCI  10
DECORAH *      CLOUDY    16  10  79 CALM      30.18S
DUBUQUE        CLEAR     20  10  65 E3        30.20R
MONTICELLO *   PTCLDY    19  19 100 CALM      30.21R
OELWEIN *      MOCLDY    23  16  74 SE6       30.19S WCI  16
WATERLOO       CLOUDY    23  14  68 SE3       30.19S
$$

IAZ064-065-067-068-078-281000-
   EAST CENTRAL IOWA

CITY           SKY/WX    TMP DP  RH WIND       PRES   REMARKS
DAVENPORT      PTCLDY    20  11  68 E7        30.22R WCI  11
IOWA CITY      PTCLDY    24  14  65 SE3       30.22R
MT. PLEASANT * PTCLDY    25  16  68 E6        30.20R WCI  18
MUSCATINE *    PTCLDY    23  16  74 CALM      30.23R
QUAD CITIES    PTCLDY    20  12  71 E6        30.22R WCI  12
$$

IAZ062-063-075>077-085>089-095>099-281000-
   SOUTHEAST IOWA

CITY           SKY/WX    TMP DP  RH WIND       PRES   REMARKS
BURLINGTON     CLEAR     26  15  63 E5        30.19S WCI  20
FAIRFIELD *    MOCLDY    25  14  63 E5        30.19R WCI  19
FORT MADISON * CLEAR     27  18  69 SE5       30.20R WCI  21
KEOKUK *       MOCLDY    28  18  64 SE3       30.19R
OSKALOOSA *      N/A     23  14  68 E6        30.19R WCI  16
CENTERVILLE *  CLOUDY    27  16  63 E6        30.17R WCI  20
OTTUMWA        PTCLDY    25  12  58 E5        30.17S WCI  19
WASHINGTON *   MOCLDY    23  19  86 E7        30.20R WCI  15
$$

ABBREVIATIONS USED IN REMARKS
   TC - TEMPERATURES IN CELSIUS
  WCI - WIND CHILL INDEX
   HX - HEAT INDEX
  VSB - VISIBILITY
$$



USA.gov is the U.S. government's official web portal to all federal, state and local government web resources and services.